User: anonymous   Login
Location: *
(33.8649°S, 62.1526°E)
Time: 23:27:28
(UTC+00:00)
Language:

SeaSat 1 - Orbit

View from above orbital plane
View from above orbital plane
View from above satellite
View from above satellite

Ground track
Ground track

The orbit data is extracted from the following two-line orbital elements,

1 10967U 78064A   21104.57263690 -.00000046  00000-0  26642-4 0  9999
2 10967 108.0004 340.2001 0002717 271.4014  88.6819 14.43870720247979
Epoch (UTC): 14 April 2021 13:44:35
Eccentricity: 0.0002717
inclination: 108.0004°
perigee height: 744 km
apogee height: 747 km
right ascension of ascending node: 340.2001°
argument of perigee: 271.4014°
revolutions per day: 14.43870720
mean anomaly at epoch: 88.6819°
orbit number at epoch: 24797

The dashed part of the orbit path shows where the satellite is in the earth's shadow,  

DLR